Location: *
(43.0167°S, 179.9000°E)
Time: 21:46:09
(UTC+00:00)

Lacrosse 4 Rocket - Pass Details

Date: 12 August 2024
Orbit: 520 x 592 km, 68.0° (Epoch: 19 September)

Event Time Altitude Azimuth Distance (km) Brightness Sun altitude
Rises 18:18:49 0° 314° (NW) 2,786 4.6 -7.5°
Reaches altitude 10° 18:21:09 10° 306° (NW) 1,883 3.7 -7.1°
Maximum altitude 18:25:08 40° 236° (SW) 850 1.9 -6.4°
Drops below altitude 10° 18:29:05 10° 165° (SSE) 1,861 4.0 -5.7°
Sets 18:31:24 0° 157° (SSE) 2,749 5.0 -5.3°
